Location: Laas
(43.4693°N, 0.3073°E)
Time: 16:07:55
(UTC+00:00)

COSMO-SKYMED 1 - Pass Details

Date: 25 October 2020
Orbit: 621 x 623 km, 97.9° (Epoch: 24 November)

Event Time Altitude Azimuth Distance (km) Brightness Sun altitude
Rises 17:25:53 0° 22° (NNE) 2,912 5.7 -5.5°
Reaches altitude 10° 17:28:17 10° 33° (NNE) 2,000 4.8 -5.9°
Maximum altitude 17:32:10 31° 96° (E) 1,091 3.3 -6.6°
Drops below altitude 10° 17:36:01 10° 159° (SSE) 1,985 5.1 -7.3°
Sets 17:38:24 0° 170° (S) 2,886 6.0 -7.7°
